• In India
  • List of Countries
  • For 7 days
  • Water Temperature
  • Satellite Maps
  • Weather Map
  • Weather Widgets
  • user-avatar
    Login

    Hourly Weather Zambezia Province

    Today, 18 January, Friday

    Time Temperature Precipitation Wind Pressure Humidity
    00:00 +27°C° 0 mm 1 mps 738 mmHg 84%
    01:00 +27°C° 0 mm 1 mps 738 mmHg 84%
    02:00 +27°C° 0 mm 1 mps 738 mmHg 84%
    03:00 +27°C° 0 mm 1 mps 738 mmHg 84%
    04:00 +26°C° 0 mm 1 mps 738 mmHg 84%
    05:00 +26°C° 0 mm 1 mps 738 mmHg 85%
    06:00 +28°C° 0 mm 1 mps 738 mmHg 80%
    07:00 +29°C° 0 mm 2 mps 739 mmHg 76%
    08:00 +31°C° 0 mm 2 mps 739 mmHg 67%
    09:00 +32°C° 0 mm 2 mps 739 mmHg 61%
    10:00 +35°C° 0 mm 2 mps 739 mmHg 54%
    11:00 +37°C° 0 mm 2 mps 738 mmHg 48%
    12:00 +37°C° 0.1 mm 2 mps 738 mmHg 46%
    13:00 +37°C° 0.1 mm 1 mps 737 mmHg 45%
    14:00 +37°C° 0 mm 1 mps 737 mmHg 46%
    15:00 +35°C° 0.3 mm 1 mps 737 mmHg 52%
    16:00 +34°C° 0.3 mm 1 mps 736 mmHg 58%
    17:00 +33°C° 0.3 mm 1 mps 736 mmHg 64%
    18:00 +32°C° 0.2 mm 1 mps 737 mmHg 67%
    19:00 +31°C° 0.2 mm 1 mps 737 mmHg 69%
    20:00 +29°C° 0.2 mm 1 mps 737 mmHg 72%
    21:00 +29°C° 0.1 mm 1 mps 738 mmHg 74%
    22:00 +29°C° 0.1 mm 1 mps 738 mmHg 76%
    23:00 +28°C° 0.1 mm 1 mps 738 mmHg 77%

    Tomorrow, 19 January, Saturday

    Time Temperature Precipitation Wind Pressure Humidity
    00:00 +28°C° 0.1 mm 1 mps 738 mmHg 79%
    01:00 +27°C° 0.1 mm 1 mps 738 mmHg 82%
    02:00 +27°C° 0.1 mm 1 mps 738 mmHg 84%
    03:00 +27°C° 0 mm 1 mps 738 mmHg 84%
    04:00 +27°C° 0 mm 1 mps 738 mmHg 85%
    05:00 +27°C° 0 mm 1 mps 738 mmHg 85%
    06:00 +28°C° 0 mm 1 mps 738 mmHg 79%
    07:00 +30°C° 0 mm 2 mps 738 mmHg 73%
    08:00 +31°C° 0 mm 2 mps 739 mmHg 67%
    09:00 +34°C° 0.1 mm 2 mps 738 mmHg 61%
    10:00 +36°C° 0.1 mm 2 mps 738 mmHg 54%
    11:00 +38°C° 0.1 mm 2 mps 738 mmHg 47%
    12:00 +37°C° 0.5 mm 1 mps 738 mmHg 48%
    13:00 +37°C° 0.5 mm 1 mps 737 mmHg 49%
    14:00 +37°C° 0.5 mm 1 mps 737 mmHg 49%
    15:00 +35°C° 0.5 mm 1 mps 737 mmHg 58%
    16:00 +33°C° 0.5 mm 1 mps 736 mmHg 66%
    17:00 +31°C° 0.5 mm 1 mps 736 mmHg 74%
    18:00 +30°C° 0.8 mm 1 mps 737 mmHg 78%
    19:00 +29°C° 0.8 mm 1 mps 737 mmHg 81%
    20:00 +28°C° 0.8 mm 1 mps 738 mmHg 85%
    21:00 +28°C° 1 mm 1 mps 738 mmHg 88%
    22:00 +27°C° 1 mm 1 mps 739 mmHg 90%
    23:00 +27°C° 1 mm 1 mps 739 mmHg 92%

    Day after tomorrow, 20 January, Sunday

    Time Temperature Precipitation Wind Pressure Humidity
    00:00 +27°C° 1.2 mm 1 mps 739 mmHg 93%
    01:00 +26°C° 1.2 mm 1 mps 738 mmHg 94%
    02:00 +26°C° 1.2 mm 1 mps 738 mmHg 95%
    03:00 +26°C° 0.9 mm 1 mps 738 mmHg 95%
    04:00 +26°C° 0.9 mm 1 mps 739 mmHg 95%
    05:00 +26°C° 0.9 mm 1 mps 739 mmHg 95%
    06:00 +26°C° 1.7 mm 2 mps 739 mmHg 94%
    07:00 +27°C° 1.7 mm 2 mps 740 mmHg 94%
    08:00 +27°C° 1.7 mm 2 mps 740 mmHg 94%
    09:00 +27°C° 0.6 mm 3 mps 740 mmHg 91%
    10:00 +28°C° 0.6 mm 3 mps 741 mmHg 88%
    11:00 +29°C° 0.6 mm 4 mps 741 mmHg 85%
    12:00 +28°C° 1 mm 4 mps 740 mmHg 88%
    13:00 +28°C° 1 mm 4 mps 740 mmHg 90%
    14:00 +27°C° 1 mm 3 mps 740 mmHg 93%
    15:00 +27°C° 0.6 mm 3 mps 740 mmHg 94%
    16:00 +26°C° 0.6 mm 3 mps 740 mmHg 95%
    17:00 +26°C° 0.6 mm 2 mps 740 mmHg 96%
    18:00 +26°C° 0.4 mm 2 mps 740 mmHg 96%
    19:00 +25°C° 0.4 mm 2 mps 741 mmHg 97%
    20:00 +25°C° 0.4 mm 2 mps 741 mmHg 97%
    21:00 +25°C° 0.1 mm 2 mps 741 mmHg 97%
    22:00 +25°C° 0.1 mm 2 mps 741 mmHg 96%
    23:00 +24°C° 0.1 mm 2 mps 741 mmHg 96%

    21 January, Monday

    Time Temperature Precipitation Wind Pressure Humidity
    00:00 +24°C° 0.1 mm 2 mps 741 mmHg 95%
    01:00 +24°C° 0.1 mm 3 mps 741 mmHg 94%
    02:00 +22°C° 0.1 mm 3 mps 740 mmHg 94%
    03:00 +22°C° 0 mm 3 mps 740 mmHg 93%
    04:00 +22°C° 0 mm 3 mps 741 mmHg 93%
    05:00 +22°C° 0 mm 3 mps 741 mmHg 92%
    06:00 +24°C° 0 mm 3 mps 741 mmHg 86%
    07:00 +25°C° 0 mm 3 mps 742 mmHg 80%
    08:00 +26°C° 0 mm 4 mps 742 mmHg 74%
    09:00 +27°C° 0 mm 4 mps 742 mmHg 70%
    10:00 +29°C° 0 mm 4 mps 741 mmHg 66%
    11:00 +30°C° 0 mm 4 mps 741 mmHg 62%
    12:00 +30°C° 0 mm 4 mps 741 mmHg 61%
    13:00 +32°C° 0 mm 4 mps 740 mmHg 60%
    14:00 +33°C° 0 mm 4 mps 739 mmHg 58%
    15:00 +32°C° 0 mm 4 mps 739 mmHg 61%
    16:00 +30°C° 0 mm 4 mps 739 mmHg 64%
    17:00 +29°C° 0 mm 4 mps 739 mmHg 68%
    18:00 +28°C° 0 mm 4 mps 739 mmHg 70%
    19:00 +27°C° 0 mm 3 mps 740 mmHg 73%
    20:00 +26°C° 0 mm 3 mps 741 mmHg 76%
    21:00 +25°C° 0 mm 3 mps 740 mmHg 77%
    22:00 +25°C° 0 mm 2 mps 740 mmHg 77%
    23:00 +24°C° 0 mm 2 mps 740 mmHg 78%

    22 January, Tuesday

    Time Temperature Precipitation Wind Pressure Humidity
    00:00 +24°C° 0 mm 2 mps 740 mmHg 77%
    01:00 +24°C° 0 mm 3 mps 739 mmHg 76%
    02:00 +24°C° 0 mm 3 mps 738 mmHg 74%
    03:00 +24°C° 0 mm 2 mps 738 mmHg 74%
    04:00 +24°C° 0 mm 2 mps 739 mmHg 73%
    05:00 +24°C° 0 mm 2 mps 739 mmHg 73%
    06:00 +26°C° 0 mm 2 mps 739 mmHg 69%
    07:00 +27°C° 0 mm 2 mps 739 mmHg 66%
    08:00 +29°C° 0 mm 2 mps 740 mmHg 62%
    09:00 +30°C° 0 mm 2 mps 740 mmHg 58%
    10:00 +33°C° 0 mm 3 mps 739 mmHg 54%
    11:00 +34°C° 0 mm 3 mps 739 mmHg 50%
    12:00 +35°C° 0 mm 3 mps 738 mmHg 50%
    13:00 +35°C° 0 mm 3 mps 737 mmHg 51%
    14:00 +35°C° 0 mm 3 mps 736 mmHg 52%
    15:00 +35°C° 0 mm 3 mps 736 mmHg 54%
    16:00 +34°C° 0 mm 2 mps 736 mmHg 56%
    17:00 +33°C° 0 mm 1 mps 736 mmHg 58%
    18:00 +31°C° 0.1 mm 1 mps 736 mmHg 64%
    19:00 +29°C° 0.1 mm 1 mps 737 mmHg 69%
    20:00 +27°C° 0.1 mm 1 mps 738 mmHg 75%
    21:00 +27°C° 0 mm 1 mps 738 mmHg 77%
    22:00 +27°C° 0 mm 1 mps 738 mmHg 80%
    23:00 +26°C° 0 mm 1 mps 738 mmHg 82%

    23 January, Wednesday

    Time Temperature Precipitation Wind Pressure Humidity
    00:00 +26°C° 0 mm 1 mps 737 mmHg 84%
    01:00 +26°C° 0 mm 1 mps 737 mmHg 85%
    02:00 +25°C° 0 mm 1 mps 736 mmHg 86%
    03:00 +25°C° 0 mm 1 mps 736 mmHg 86%
    04:00 +25°C° 0 mm 1 mps 737 mmHg 86%
    05:00 +25°C° 0 mm 1 mps 737 mmHg 86%
    06:00 +27°C° 0 mm 2 mps 737 mmHg 79%
    07:00 +29°C° 0 mm 2 mps 737 mmHg 72%
    08:00 +31°C° 0 mm 3 mps 738 mmHg 66%
    09:00 +34°C° 0 mm 3 mps 737 mmHg 57%
    10:00 +36°C° 0 mm 3 mps 737 mmHg 49%
    11:00 +38°C° 0 mm 3 mps 736 mmHg 41%
    12:00 +39°C° 0 mm 2 mps 736 mmHg 39%
    13:00 +39°C° 0 mm 2 mps 735 mmHg 37%
    14:00 +40°C° 0 mm 2 mps 734 mmHg 35%
    15:00 +37°C° 0 mm 1 mps 734 mmHg 43%
    16:00 +35°C° 0 mm 1 mps 734 mmHg 50%
    17:00 +34°C° 0 mm 1 mps 734 mmHg 57%
    18:00 +32°C° 0 mm 1 mps 735 mmHg 61%
    19:00 +31°C° 0 mm 1 mps 735 mmHg 65%
    20:00 +30°C° 0 mm 1 mps 736 mmHg 69%
    21:00 +30°C° 0 mm 2 mps 736 mmHg 70%
    22:00 +29°C° 0 mm 2 mps 736 mmHg 70%
    23:00 +29°C° 0 mm 2 mps 736 mmHg 71%
    Show more